Date,TemperatureHighF,TemperatureAvgF,TemperatureLowF,DewpointHighF,DewpointAvgF,DewpointLowF,HumidityHigh,HumidityAvg,HumidityLow,PressureMaxIn,PressureMinIn,WindSpeedMaxMPH,WindSpeedAvgMPH,GustSpeedMaxMPH,PrecipitationSumIn
2013-1-1,45.0,40.4,36.0,27.0,24.2,19.0,60,52,47,0.00,40.00,7,3,13,0.00
2013-1-2,38.0,33.6,28.0,26.0,16.4,11.0,60,49,38,0.00,40.00,9,3,19,0.00
2013-1-3,41.0,30.4,24.0,18.0,15.2,12.0,67,54,36,0.00,40.00,6,2,12,0.00
2013-1-4,45.0,35.5,27.0,21.0,18.9,17.0,69,52,38,0.00,40.00,11,5,29,0.00
2013-1-5,46.0,37.4,32.0,28.0,21.1,17.0,71,52,39,0.00,40.00,7,-4,18,0.00
2013-1-6,54.0,42.3,29.0,36.0,27.5,23.0,96,60,32,0.00,40.00,9,3,20,0.00
2013-1-7,49.0,41.1,28.0,27.0,24.4,22.0,87,52,39,0.00,40.00,9,3,19,0.00
2013-1-8,55.0,38.7,26.0,34.0,28.9,24.0,96,72,37,0.00,40.00,10,3,23,0.00
2013-1-9,53.0,40.8,29.0,42.0,34.3,28.0,99,80,42,0.00,40.00,8,2,22,0.00
2013-1-10,56.0,46.8,39.0,29.0,26.0,23.0,67,45,33,0.00,40.00,7,3,14,0.00
2013-1-11,46.0,40.8,34.0,43.0,36.3,29.0,99,85,67,0.00,40.00,5,1,8,0.00
2013-1-12,60.0,47.3,42.0,49.0,43.5,42.0,99,89,54,0.00,40.00,4,1,9,0.00
2013-1-13,50.0,45.8,41.0,49.0,45.3,40.0,98,98,96,0.00,40.00,5,1,9,0.00
2013-1-14,57.0,51.3,41.0,57.0,44.6,31.0,98,80,48,0.00,40.00,7,3,16,0.12
2013-1-15,40.0,39.0,36.0,40.0,38.2,35.0,98,97,94,0.00,40.00,7,3,14,0.78
2013-1-16,41.0,37.6,35.0,40.0,37.4,34.0,99,99,98,0.00,40.00,9,2,19,0.32
2013-1-17,45.0,41.3,38.0,41.0,31.1,25.0,99,69,48,0.00,40.00,7,2,14,0.00
2013-1-18,39.0,34.3,27.0,28.0,15.1,6.0,75,47,29,0.00,40.00,12,4,31,0.00
2013-1-19,56.0,41.9,30.0,25.0,21.6,11.0,67,46,29,0.00,40.00,13,8,24,0.00
2013-1-20,60.0,46.9,34.0,30.0,21.2,9.0,54,37,23,0.00,40.00,11,7,32,0.00
2013-1-21,44.0,35.2,30.0,29.0,17.9,10.0,63,49,36,0.00,40.00,9,4,22,0.00
2013-1-22,30.0,21.9,16.0,13.0,0.8,-3.0,49,40,32,0.00,40.00,13,7,29,0.00
2013-1-23,27.0,20.1,12.0,4.0,1.1,-2.0,64,44,35,0.00,40.00,9,3,22,0.00
2013-1-24,26.0,20.0,16.0,16.0,8.1,-1.0,93,64,32,0.00,40.00,6,4,19,0.00
2013-1-25,24.0,18.8,12.0,19.0,8.4,0.0,94,66,41,0.00,40.00,7,1,12,0.00
2013-1-26,35.0,26.5,20.0,21.0,17.6,14.0,94,71,45,0.00,40.00,9,2,17,0.00
2013-1-27,40.0,27.4,16.0,24.0,17.6,13.0,96,71,36,0.00,40.00,7,-5,10,0.00
2013-1-28,40.0,34.8,27.0,38.0,32.0,23.0,99,90,70,0.00,40.00,9,4,19,0.00
2013-1-29,71.0,50.4,34.0,51.0,42.8,33.0,99,79,42,0.00,40.00,6,3,14,0.00
2013-1-30,71.0,58.7,46.0,59.0,54.2,45.0,98,86,66,0.00,40.00,18,6,32,0.00
2013-1-31,55.0,40.3,28.0,54.0,17.3,8.0,98,41,27,0.00,40.00,14,8,40,0.00
2013-2-1,32.0,27.3,20.0,26.0,8.2,0.0,91,46,32,0.00,40.00,14,6,35,0.00
2013-2-2,31.0,24.3,16.0,26.0,9.7,0.0,95,56,34,0.00,40.00,10,4,18,0.00
2013-2-3,36.0,28.9,20.0,30.0,24.4,20.0,98,85,55,0.00,40.00,6,2,21,0.00
2013-2-4,37.0,30.4,23.0,22.0,12.3,7.0,72,47,37,0.00,40.00,13,4,27,0.00
2013-2-5,40.0,34.2,28.0,30.0,25.5,19.0,86,71,55,0.00,40.00,5,2,9,0.00
2013-2-6,46.0,36.7,28.0,31.0,24.7,18.0,95,65,40,0.00,40.00,11,-10,23,0.00
2013-2-7,40.0,32.9,25.0,29.0,23.3,19.0,87,69,48,0.00,40.00,10,2,15,0.00
2013-2-8,43.0,37.5,33.0,42.0,33.5,19.0,99,86,53,0.00,40.00,12,5,35,0.00
2013-2-9,41.0,33.3,29.0,20.0,13.3,10.0,53,44,33,0.00,40.00,19,9,37,0.00
2013-2-10,47.0,33.1,19.0,30.0,14.5,9.0,84,50,26,0.00,40.00,7,3,14,0.00
2013-2-11,55.0,45.1,36.0,50.0,43.1,30.0,99,93,77,0.00,40.00,12,5,21,0.00
2013-2-12,57.0,47.6,37.0,45.0,25.8,23.0,88,44,29,0.00,40.00,13,4,30,0.00
2013-2-13,48.0,36.9,29.0,37.0,29.6,24.0,99,77,45,0.00,40.00,7,3,13,0.00
2013-2-14,51.0,38.9,31.0,36.0,28.2,17.0,99,72,26,0.00,40.00,7,3,14,0.00
2013-2-15,62.0,44.9,34.0,36.0,32.7,29.0,96,68,29,0.00,40.00,12,4,21,0.00
2013-2-16,37.0,35.6,33.0,36.0,30.1,14.0,99,82,46,0.00,40.00,9,3,17,0.00
2013-2-17,33.0,28.9,24.0,14.0,9.2,4.0,57,44,33,0.00,40.00,16,7,35,0.00
2013-2-18,43.0,30.3,20.0,23.0,7.2,2.0,65,39,23,0.00,40.00,9,4,19,0.00
2013-2-19,45.0,39.8,33.0,42.0,29.9,18.0,94,70,46,0.00,40.00,12,7,22,0.00
2013-2-20,38.0,32.9,26.0,21.0,11.8,5.0,49,41,35,0.00,40.00,14,7,30,0.00
2013-2-21,40.0,30.9,24.0,14.0,10.7,6.0,51,43,34,0.00,40.00,12,5,26,0.00
2013-2-22,35.0,31.6,29.0,32.0,21.4,12.0,97,67,47,0.00,40.00,9,-5,15,0.00
2013-2-23,46.0,39.1,32.0,45.0,38.9,32.0,99,99,97,0.00,40.00,6,3,12,0.00
2013-2-24,52.0,42.3,32.0,43.0,29.3,15.0,99,65,30,0.00,40.00,13,6,27,0.00
2013-2-25,50.0,37.3,28.0,23.0,19.7,16.0,76,51,33,0.00,40.00,9,2,17,0.00
2013-2-26,45.0,36.8,27.0,45.0,33.4,23.0,99,88,63,0.00,40.00,15,5,33,0.00
2013-2-27,58.0,47.8,41.0,45.0,36.5,27.0,99,70,40,0.00,40.00,11,4,24,0.00
2013-2-28,49.0,43.3,39.0,38.0,28.3,20.0,92,58,33,0.00,40.00,11,4,23,0.00
2013-3-1,45.0,41.4,37.0,31.0,26.7,22.0,69,56,46,0.00,40.00,9,5,19,0.00
2013-3-2,39.0,34.6,30.0,24.0,20.6,18.0,68,57,50,0.00,40.00,11,4,22,0.00
2013-3-3,39.0,34.0,29.0,21.0,18.7,16.0,64,54,45,0.00,40.00,12,6,24,0.00
2013-3-4,44.0,34.9,28.0,20.0,16.4,14.0,56,47,37,0.00,40.00,13,6,26,0.00
2013-3-5,53.0,38.5,27.0,28.0,19.7,16.0,68,49,26,0.00,40.00,10,3,18,0.00
2013-3-6,40.0,36.5,33.0,37.0,33.7,26.0,99,90,60,0.00,40.00,17,10,37,0.00
2013-3-7,52.0,42.7,36.0,27.0,22.8,18.0,65,46,32,0.00,40.00,12,7,27,0.00
2013-3-8,50.0,42.0,32.0,26.0,23.6,20.0,70,49,38,0.00,40.00,15,8,34,0.00
2013-3-9,65.0,47.3,35.0,25.0,20.3,17.0,51,36,19,0.00,40.00,7,4,19,0.00
2013-3-10,63.0,46.8,31.0,40.0,24.1,13.0,83,47,17,0.00,40.00,10,3,21,0.00
2013-3-11,58.0,50.3,43.0,47.0,43.1,39.0,95,78,53,0.00,40.00,11,4,29,0.00
2013-3-12,60.0,51.8,42.0,56.0,44.4,27.0,98,78,46,0.00,40.00,12,-1,24,0.00
2013-3-13,51.0,41.3,31.0,35.0,24.4,16.0,92,54,27,0.00,40.00,12,4,31,0.00
2013-3-14,46.0,37.7,31.0,17.0,15.2,12.0,52,40,29,0.00,40.00,13,-1,32,0.00
2013-3-15,57.0,42.6,29.0,28.0,21.0,14.0,68,44,28,0.00,40.00,13,5,28,0.00
2013-3-16,58.0,45.8,38.0,37.0,33.5,29.0,81,63,44,0.00,40.00,8,4,20,0.00
2013-3-17,42.0,37.7,33.0,33.0,28.8,24.0,95,71,54,0.00,40.00,8,4,15,0.00
2013-3-18,40.0,37.1,35.0,38.0,28.0,18.0,99,71,48,0.00,40.00,9,4,19,0.00
2013-3-19,59.0,46.2,37.0,41.0,29.8,8.0,99,64,18,0.00,40.00,11,4,29,0.00
2013-3-20,54.0,44.1,35.0,17.0,13.9,11.0,43,30,21,0.00,40.00,12,5,27,0.00
2013-3-21,44.0,35.6,29.0,24.0,13.2,6.0,68,40,30,0.00,40.00,11,7,23,0.00
2013-3-22,48.0,36.5,28.0,19.0,14.5,7.0,51,41,31,0.00,40.00,12,5,24,0.00
2013-3-23,54.0,39.9,27.0,24.0,20.7,15.0,76,49,30,0.00,40.00,12,5,25,0.00
2013-3-24,45.0,36.9,29.0,34.0,23.3,18.0,94,60,42,0.00,40.00,8,3,15,0.00
2013-3-25,37.0,34.4,32.0,37.0,33.7,32.0,99,98,91,0.00,40.00,6,3,12,0.00
2013-3-26,51.0,40.9,31.0,38.0,28.2,20.0,99,67,32,0.00,40.00,9,3,17,0.00
2013-3-27,52.0,43.9,38.0,27.0,24.7,21.0,62,47,36,0.00,40.00,13,-9,29,0.00
2013-3-28,50.0,43.0,34.0,31.0,26.2,22.0,73,52,36,0.00,40.00,13,5,24,0.00
2013-3-29,57.0,47.8,42.0,30.0,26.2,24.0,55,44,32,0.00,40.00,9,4,22,0.00
2013-3-30,63.0,48.5,35.0,36.0,27.3,19.0,83,48,23,0.00,40.00,9,2,16,0.00
2013-3-31,55.0,47.6,39.0,51.0,40.4,-99.9,97,79,49,0.00,40.00,9,4,20,0.00
2013-4-1,67.0,50.9,40.0,49.0,35.2,16.0,99,62,30,0.00,40.00,13,-2,30,0.00
2013-4-2,51.0,41.7,31.0,17.0,13.5,10.0,45,32,24,0.00,40.00,13,5,28,0.00
2013-4-3,52.0,40.7,28.0,18.0,12.9,8.0,53,33,22,0.00,40.00,14,6,30,0.00
2013-4-4,54.0,38.7,25.0,31.0,17.5,12.0,72,44,27,0.00,40.00,7,-95,15,0.00
2013-4-5,67.0,49.6,38.0,41.0,29.9,16.0,99,59,19,0.00,40.00,10,-110,21,0.00
2013-4-6,59.0,47.5,37.0,32.0,18.0,13.0,62,32,23,0.00,40.00,9,4,18,0.00
2013-4-7,69.0,52.4,38.0,42.0,36.0,28.0,88,56,34,0.00,40.00,13,6,24,0.00
2013-4-8,82.0,67.6,56.0,50.0,44.8,40.0,61,45,30,0.00,40.00,8,-17,21,0.00
2013-4-9,88.0,74.3,63.0,56.0,51.9,49.0,62,47,31,0.00,40.00,9,5,24,0.00
2013-4-10,93.0,78.6,65.0,59.0,54.6,52.0,62,45,31,0.00,40.00,10,5,25,0.00
2013-4-11,87.0,70.1,54.0,60.0,57.0,53.0,95,67,37,0.00,40.00,13,-16,29,0.00
2013-4-12,64.0,55.5,52.0,62.0,53.7,51.0,98,94,78,0.00,40.00,11,5,24,0.00
2013-4-13,69.0,55.4,42.0,52.0,40.1,32.0,97,63,29,0.00,40.00,9,4,21,0.00
2013-4-14,69.0,55.5,40.0,46.0,37.1,30.0,96,58,24,0.00,40.00,9,3,19,0.00
2013-4-15,61.0,55.8,53.0,52.0,46.7,39.0,95,74,52,0.00,40.00,7,3,14,0.00